Regional Weather Roundup
Issued by NWS Cleveland, OH

Home | Current Version | Previous Version | Text Only | Print | Product List | Glossary Off
Versions: 1 2 3 4 5 6 7 8 9 10 11 12 13 14 15 16 17 18 19 20 21 22 23 24 25 26 27 28 29 30 31 32 33 34 35 36 37 38 39 40 41 42 43 44 45 46 47 48 49 50

000
ASUS41 KCLE 202002
RWRCLE
OHIO REGIONAL WEATHER ROUNDUP
NATIONAL WEATHER SERVICE CLEVELAND, OH
400 PM EDT MON APR 20 2015

NOTE: "FAIR" INDICATES FEW OR NO CLOUDS BELOW 12,000 FEET WITH NO
SIGNIFICANT WEATHER AND/OR OBSTRUCTIONS TO VISIBILITY.

OHZ001>008-015>018-024>027-034-035-043-044-202100-
   NORTHWEST OHIO

CITY           SKY/WX    TMP DP  RH WIND       PRES   REMARKS
DEFIANCE       CLOUDY    53  44  71 SW16G35   29.47R
FINDLAY        CLOUDY    54  45  71 SW28G43   29.48R
TOLEDO EXPRESS CLOUDY    55  44  66 SW25G43   29.43R
TOLEDO EXEC    CLOUDY    56  45  66 SW30G39   29.44R
LIMA           CLOUDY    55  44  66 SW28G41   29.50R
$$

OHZ009>014-019>023-028>033-038-089-202100-
   NORTHEAST OHIO

CITY           SKY/WX    TMP DP  RH WIND       PRES   REMARKS
CLE-HOPKINS    PTSUNNY   63  54  72 SW25G33   29.43R
CLE-LAKEFRONT  PTSUNNY   64  56  75 SW21      29.40R
CUY CO. ARPT   LGT RAIN  63  55  77 W17G35    29.40R FOG
LORAIN-ELYRIA  LGT RAIN  62  51  67 W26G36    29.43R
ASHTABULA      PTSUNNY   69  50  50 SW30G41   29.41R
AKRON-CANTON   LGT RAIN  59  51  75 SW23G32   29.47R
WOOSTER        LGT RAIN  59  54  83 SW18G25   29.46R
MANSFIELD      PTSUNNY   61  48  62 SW17G29   29.47R
YOUNGSTOWN     PTSUNNY   67  51  56 SW23G30   29.43S
$$

OHZ042-051>053-060>062-070>072-077>081-202100-
  SOUTHWEST OHIO

CITY           SKY/WX    TMP DP  RH WIND       PRES   REMARKS
CINC-COVINGTON CLOUDY    56  44  64 W15G25    29.61
CINC-LUNKEN    CLOUDY    58  47  66 W20G28    29.60R
HAMILTON       CLOUDY    57  44  62 W16G28    29.61R
DAYTON         CLOUDY    54  45  71 W23G35    29.58R
WRIGHT-PAT AFB CLOUDY    55  46  72 W23G30    29.56R
DAYTON GENERAL CLOUDY    55  44  66 W21G31    29.57R
WILMINGTON     PTSUNNY   60  46  59 W25       29.55R
$$

OHZ036-037-039>041-045>050-054>059-063>069-073>076-082>088-202100-
  CENTRAL AND SOUTHEAST OHIO

CITY           SKY/WX    TMP DP  RH WIND       PRES   REMARKS
COLUMBUS       MOSUNNY   64  50  60 SW25G33   29.51R
OSU AIRPORT    CLOUDY    62  48  60 SW21G33   29.51R
BOLTON FIELD   NOT AVBL
RICKENBACK AFB NOT AVBL
NEWARK         PTSUNNY   66  53  63 SW23G36   29.50R
MARION         CLOUDY    60  46  59 SW24G35   29.49R
LANCASTER      MOSUNNY   65  56  72 W18G25    29.52S
ZANESVILLE     LGT RAIN  57  53  86 SW13G20   29.52R
NEW PHILLY     RAIN      61  52  72 SW12G28   29.51R
$$


USA.gov is the U.S. government's official web portal to all federal, state and local government web resources and services.